Find Starlink 30885

NORAD ID: 58361 Int'l Des: 2023-177 Owner: SPXS Country: US Constellation: starlink operational
LEOCIRCULAR

实时位置

正在加载3D地球...

关于 Starlink 30885

正在加载描述...

即将过境

Passes for default location (London). Set your location on the main map for personalized predictions.

高度历史

Loading altitude history...

两行轨道根数

1 58361U 23177L 26127.96237224 .00005633 00000-0 21414-3 0 9998
2 58361 43.0014 15.7573 0001396 260.2497 99.8197 15.27568810137304
Epoch: May 7, 2026 • Age: 6 hours

当前状态

高度 483.4 km
速度 7.63 km/s
星下点 -5.36°S, 95.17°W
发射日期 Nov 18, 2023
运行时间 2.4 years
类型 internet

技术详情

分类 Payload
质量 730.00 kg
干质量 700.00 kg
总质量 730.00 kg
长度 0.30 m
直径 4.10 m
跨度 29.00 m
形状 Box + pan
制造商 SPXS
平台类型 Starlink V2M
阶段状态 In Orbit
所有者/国家 SPXS/US

Most Searched